• Join FlightAware (Why Join?)
  • Login
  • US Flag 
10:54PM EST


 

Airport Tracker/Info


-or-


 

Live Flight TrackerFlight Track Log ✈ SKW7427 ✈ 15-Sep-2013 ✈ KMSP - KINL

Flight Track Log - Related Links

Times and Time Zones

All times are in EDT time to prevent confusion due to time zone crossing. See the SKW7427 flight status page for this flight to view local times or setup timezone preferences in your user account.

Time Position Orientation Groundspeed Altitude Reporting Facility
EDT Latitude Longitude Course Direction KTS MPH feet Rate Location/Type
08:30PM 44.9000 -93.2333 North 167 192 1,900  Level Minneapolis TRACON
08:31PM 44.9381 -93.2806 319° Northwest 196 226 3,700 2,262 Climbing Minneapolis Center
08:32PM 44.9994 -93.2856 357° North 222 255 6,500 2,613 Climbing Minneapolis Center
08:33PM 45.0714 -93.2886 358° North 256 295 9,100 2,226 Climbing Minneapolis Center
08:34PM 45.3819 -93.2449 North  Level Estimated
08:34PM 45.1478 -93.2892 360° North 273 314 11,100  Level Minneapolis Center
08:35PM 45.4818 -93.2495 North  Level Estimated
08:35PM 45.2381 -93.2875 North 324 373 12,500  Level Minneapolis Center
08:36PM 45.3506 -93.2917 359° North 336 387 15,000 2,000 Climbing Minneapolis Center
08:37PM 45.4247 -93.2944 358° North 333 383 16,600 1,610 Climbing Minneapolis Center
08:38PM 45.5361 -93.2981 359° North 334 384 18,300 1,403 Climbing Minneapolis Center
08:39PM 45.6297 -93.3028 358° North 336 387 19,500 1,065 Climbing Minneapolis Center
08:40PM 45.7275 -93.3044 359° North 348 400 20,500 1,016 Climbing Minneapolis Center
08:41PM 45.8267 -93.3081 359° North 355 409 21,600 1,065 Climbing Minneapolis Center
08:42PM 45.9472 -93.3122 359° North 361 415 22,700 1,113 Climbing Minneapolis Center
08:43PM 46.0492 -93.3142 359° North 366 421 23,900 1,161 Climbing Minneapolis Center
08:44PM 46.1494 -93.3172 359° North 363 418 25,100 968 Climbing Minneapolis Center
08:45PM 46.2403 -93.3217 358° North 361 415 25,900 871 Climbing Minneapolis Center
08:46PM 46.3619 -93.3264 358° North 364 419 26,900 871 Climbing Minneapolis Center
08:47PM 46.4633 -93.3294 359° North 366 421 27,700 823 Climbing Minneapolis Center
08:49PM 46.5653 -93.3358 358° North 365 420 28,600 774 Climbing Minneapolis Center
08:50PM 46.6669 -93.3381 359° North 366 421 29,300 683 Climbing Minneapolis Center
08:51PM 46.7672 -93.3417 359° North 361 415 30,000 341 Climbing Minneapolis Center
08:52PM 46.8681 -93.3453 359° North 362 417 30,000  Level Minneapolis Center
08:53PM 46.9894 -93.3492 359° North 364 419 30,000  Level Minneapolis Center
08:54PM 47.0911 -93.3528 359° North 365 420 30,000  Level Minneapolis Center
08:55PM 47.1933 -93.3564 359° North 366 421 30,000  Level Minneapolis Center
08:56PM 47.2956 -93.3611 358° North 365 420 30,000  Level Minneapolis Center
08:57PM 47.4011 -93.3633 359° North 370 426 30,000 -194 Level Minneapolis Center
08:58PM 47.5050 -93.3664 359° North 368 423 29,600 -1,597 Descending Minneapolis Center
08:59PM 47.6075 -93.3697 359° North 366 421 26,700 -2,855 Descending Minneapolis Center
09:00PM 47.7075 -93.3728 359° North 363 418 23,700 -2,806 Descending Minneapolis Center
09:01PM 47.8044 -93.3775 358° North 356 410 20,900 -2,806 Descending Minneapolis Center
09:02PM 47.9133 -93.3819 358° North 341 392 17,900 -2,468 Descending Minneapolis Center
09:03PM 47.9986 -93.3847 359° North 324 373 15,800 -2,177 Descending Minneapolis Center
09:04PM 48.0817 -93.3761 North 311 358 13,400 -2,371 Descending Minneapolis Center
09:05PM 48.1575 -93.3550 11° North 295 339 10,900 -2,390 Descending Minneapolis Center
09:06PM 48.2269 -93.3383 North 274 315 8,500 -2,049 Descending Minneapolis Center
09:07PM 48.2944 -93.3233 North 259 298 6,700 -1,694 Descending Minneapolis Center
09:08PM 48.3675 -93.3069 North 239 275 5,000 -1,306 Descending Minneapolis Center
09:09PM 48.4183 -93.2956 North 212 244 4,000 -823 Descending Minneapolis Center
09:10PM 48.4642 -93.2850 North 188 216 3,300 -581 Descending Minneapolis Center
09:11PM 48.5000 -93.3056 339° North 161 185 2,800 -532 Descending Minneapolis Center
09:12PM 48.5281 -93.3503 313° West 148 170 2,200 -581 Descending Minneapolis Center
09:14PM 48.5500 -93.4000 297° West  Level FlightAware Approximate